When you browse on this site, cookies collect data to enhance your experience and personalize the content and advertising you see.
Visit our Privacy Policy to learn more. By continuing to use the site, you agree to this use of cookies and data.
  • în România
  • Lista ţărilor
  • Pe 7 zile
  • Temperatura apei
  • Hartă satelitară
  • Meteo pe hartă
  • Widget-uri
  • user-avatar
    Intrare

    Meteo pe oră la Quito

    Astăzi, 17 Ianuarie, Joi

    Timp Temperatura Precipitaţii Vânt Presiune Umiditate
    00:00 +14°C° 0 mm 1 m/s 621 mmHg 95%
    01:00 +14°C° 0 mm 1 m/s 621 mmHg 95%
    02:00 +14°C° 0 mm 1 m/s 621 mmHg 95%
    03:00 +14°C° 0 mm 1 m/s 621 mmHg 95%
    04:00 +13°C° 0 mm 1 m/s 621 mmHg 95%
    05:00 +14°C° 0 mm 1 m/s 621 mmHg 92%
    06:00 +15°C° 0 mm 1 m/s 622 mmHg 90%
    07:00 +16°C° 0 mm 1 m/s 622 mmHg 87%
    08:00 +19°C° 0 mm 1 m/s 623 mmHg 78%
    09:00 +22°C° 0 mm 1 m/s 624 mmHg 69%
    10:00 +24°C° 0 mm 1 m/s 625 mmHg 61%
    11:00 +25°C° 0.1 mm 1 m/s 624 mmHg 61%
    12:00 +25°C° 0.1 mm 1 m/s 623 mmHg 61%
    13:00 +25°C° 0.1 mm 2 m/s 623 mmHg 62%
    14:00 +25°C° 0.3 mm 1 m/s 622 mmHg 64%
    15:00 +25°C° 0.3 mm 1 m/s 622 mmHg 66%
    16:00 +25°C° 0.3 mm 1 m/s 621 mmHg 68%
    17:00 +23°C° 1.5 mm 1 m/s 621 mmHg 76%
    18:00 +21°C° 1.5 mm 1 m/s 621 mmHg 84%
    19:00 +19°C° 1.5 mm 1 m/s 621 mmHg 91%
    20:00 +19°C° 0.7 mm 1 m/s 621 mmHg 91%
    21:00 +19°C° 0.7 mm 1 m/s 622 mmHg 91%
    22:00 +19°C° 0.7 mm 1 m/s 623 mmHg 91%
    23:00 +18°C° 0.1 mm 1 m/s 622 mmHg 92%

    Mâine, 18 Ianuarie, Vineri

    Timp Temperatura Precipitaţii Vânt Presiune Umiditate
    00:00 +18°C° 0.1 mm 1 m/s 622 mmHg 93%
    01:00 +16°C° 0.1 mm 1 m/s 622 mmHg 94%
    02:00 +16°C° 0 mm 1 m/s 621 mmHg 95%
    03:00 +16°C° 0 mm 1 m/s 621 mmHg 95%
    04:00 +16°C° 0 mm 1 m/s 621 mmHg 96%
    05:00 +16°C° 0 mm 2 m/s 621 mmHg 95%
    06:00 +17°C° 0 mm 2 m/s 622 mmHg 94%
    07:00 +17°C° 0 mm 2 m/s 622 mmHg 93%
    08:00 +20°C° 0.8 mm 1 m/s 623 mmHg 88%
    09:00 +22°C° 0.8 mm 1 m/s 623 mmHg 82%
    10:00 +23°C° 0.8 mm 1 m/s 624 mmHg 77%
    11:00 +24°C° 2.1 mm 1 m/s 623 mmHg 76%
    12:00 +25°C° 2.1 mm 1 m/s 623 mmHg 76%
    13:00 +23°C° 2.1 mm 0 m/s 623 mmHg 76%
    14:00 +24°C° 3.4 mm 1 m/s 622 mmHg 81%
    15:00 +23°C° 3.4 mm 1 m/s 621 mmHg 86%
    16:00 +21°C° 3.4 mm 1 m/s 620 mmHg 91%
    17:00 +20°C° 3.2 mm 1 m/s 621 mmHg 92%
    18:00 +20°C° 3.2 mm 1 m/s 621 mmHg 93%
    19:00 +18°C° 3.2 mm 2 m/s 621 mmHg 93%
    20:00 +18°C° 2.2 mm 2 m/s 622 mmHg 93%
    21:00 +18°C° 2.2 mm 2 m/s 622 mmHg 93%
    22:00 +17°C° 2.2 mm 2 m/s 623 mmHg 93%
    23:00 +17°C° 0.6 mm 2 m/s 622 mmHg 94%

    Poimâine, 19 Ianuarie, Sâmbătă

    Timp Temperatura Precipitaţii Vânt Presiune Umiditate
    00:00 +17°C° 0.6 mm 2 m/s 622 mmHg 95%
    01:00 +16°C° 0.6 mm 1 m/s 622 mmHg 96%
    02:00 +17°C° 0.7 mm 2 m/s 621 mmHg 95%
    03:00 +17°C° 0.7 mm 2 m/s 621 mmHg 95%
    04:00 +17°C° 0.7 mm 2 m/s 621 mmHg 95%
    05:00 +17°C° 0.1 mm 3 m/s 621 mmHg 95%
    06:00 +17°C° 0.1 mm 3 m/s 622 mmHg 95%
    07:00 +17°C° 0.1 mm 3 m/s 622 mmHg 94%
    08:00 +18°C° 0.2 mm 3 m/s 622 mmHg 90%
    09:00 +19°C° 0.2 mm 3 m/s 623 mmHg 86%
    10:00 +21°C° 0.2 mm 3 m/s 623 mmHg 81%
    11:00 +21°C° 0.8 mm 3 m/s 623 mmHg 79%
    12:00 +22°C° 0.8 mm 3 m/s 623 mmHg 77%
    13:00 +24°C° 0.8 mm 3 m/s 622 mmHg 75%
    14:00 +22°C° 1.7 mm 3 m/s 622 mmHg 78%
    15:00 +22°C° 1.7 mm 3 m/s 622 mmHg 80%
    16:00 +22°C° 1.7 mm 3 m/s 621 mmHg 83%
    17:00 +20°C° 2 mm 2 m/s 621 mmHg 86%
    18:00 +19°C° 2 mm 2 m/s 621 mmHg 90%
    19:00 +19°C° 2 mm 1 m/s 621 mmHg 93%
    20:00 +19°C° 3.7 mm 1 m/s 622 mmHg 94%
    21:00 +17°C° 3.7 mm 2 m/s 622 mmHg 96%
    22:00 +17°C° 3.7 mm 2 m/s 623 mmHg 97%
    23:00 +17°C° 1.6 mm 2 m/s 622 mmHg 97%

    20 Ianuarie, Duminică

    Timp Temperatura Precipitaţii Vânt Presiune Umiditate
    00:00 +17°C° 1.6 mm 2 m/s 622 mmHg 97%
    01:00 +16°C° 1.6 mm 3 m/s 622 mmHg 97%
    02:00 +16°C° 0 mm 2 m/s 621 mmHg 97%
    03:00 +16°C° 0 mm 2 m/s 621 mmHg 96%
    04:00 +15°C° 0 mm 2 m/s 621 mmHg 96%
    05:00 +16°C° 0 mm 2 m/s 622 mmHg 95%
    06:00 +16°C° 0 mm 2 m/s 622 mmHg 94%
    07:00 +17°C° 0 mm 2 m/s 623 mmHg 93%
    08:00 +19°C° 0.3 mm 2 m/s 623 mmHg 86%
    09:00 +21°C° 0.3 mm 2 m/s 624 mmHg 80%
    10:00 +24°C° 0.3 mm 1 m/s 625 mmHg 73%
    11:00 +24°C° 0.8 mm 2 m/s 624 mmHg 72%
    12:00 +25°C° 0.8 mm 2 m/s 624 mmHg 70%
    13:00 +25°C° 0.8 mm 2 m/s 623 mmHg 69%
    14:00 +24°C° 1.2 mm 2 m/s 623 mmHg 73%
    15:00 +24°C° 1.2 mm 2 m/s 622 mmHg 76%
    16:00 +23°C° 1.2 mm 1 m/s 622 mmHg 80%
    17:00 +22°C° 0.9 mm 1 m/s 622 mmHg 84%
    18:00 +20°C° 0.9 mm 1 m/s 622 mmHg 87%
    19:00 +17°C° 0.9 mm 0 m/s 622 mmHg 91%
    20:00 +17°C° 0.1 mm 0 m/s 622 mmHg 92%
    21:00 +16°C° 0.1 mm 0 m/s 623 mmHg 92%
    22:00 +16°C° 0.1 mm 0 m/s 623 mmHg 93%
    23:00 +18°C° 0 mm 1 m/s 623 mmHg 94%

    21 Ianuarie, Luni

    Timp Temperatura Precipitaţii Vânt Presiune Umiditate
    00:00 +18°C° 0 mm 1 m/s 623 mmHg 95%
    01:00 +16°C° 0 mm 1 m/s 622 mmHg 95%
    02:00 +16°C° 0 mm 1 m/s 622 mmHg 96%
    03:00 +16°C° 0 mm 1 m/s 622 mmHg 96%
    04:00 +16°C° 0 mm 1 m/s 622 mmHg 96%
    05:00 +16°C° 0 mm 1 m/s 622 mmHg 96%
    06:00 +18°C° 0 mm 1 m/s 623 mmHg 95%
    07:00 +18°C° 0 mm 1 m/s 623 mmHg 94%
    08:00 +20°C° 0 mm 1 m/s 624 mmHg 86%
    09:00 +22°C° 0 mm 1 m/s 625 mmHg 77%
    10:00 +24°C° 0 mm 2 m/s 625 mmHg 69%
    11:00 +24°C° 0.3 mm 2 m/s 625 mmHg 68%
    12:00 +24°C° 0.3 mm 2 m/s 624 mmHg 67%
    13:00 +25°C° 0.3 mm 2 m/s 623 mmHg 67%
    14:00 +24°C° 1.1 mm 2 m/s 623 mmHg 73%
    15:00 +22°C° 1.1 mm 3 m/s 622 mmHg 80%
    16:00 +21°C° 1.1 mm 3 m/s 621 mmHg 87%
    17:00 +20°C° 1.1 mm 2 m/s 621 mmHg 88%
    18:00 +19°C° 1.1 mm 2 m/s 622 mmHg 90%
    19:00 +18°C° 1.1 mm 2 m/s 622 mmHg 91%
    20:00 +19°C° 0.5 mm 1 m/s 622 mmHg 91%
    21:00 +19°C° 0.5 mm 1 m/s 622 mmHg 92%
    22:00 +18°C° 0.5 mm 1 m/s 622 mmHg 92%
    23:00 +16°C° 0.1 mm 0 m/s 622 mmHg 93%

    22 Ianuarie, Marţi

    Timp Temperatura Precipitaţii Vânt Presiune Umiditate
    00:00 +16°C° 0.1 mm 0 m/s 622 mmHg 93%
    01:00 +16°C° 0.1 mm 0 m/s 621 mmHg 93%
    02:00 +16°C° 0.1 mm 0 m/s 621 mmHg 94%
    03:00 +15°C° 0.1 mm 0 m/s 621 mmHg 95%
    04:00 +15°C° 0.1 mm 0 m/s 621 mmHg 95%
    05:00 +16°C° 0 mm 0 m/s 622 mmHg 94%
    06:00 +18°C° 0 mm 1 m/s 622 mmHg 94%
    07:00 +19°C° 0 mm 1 m/s 623 mmHg 93%
    08:00 +19°C° 0 mm 2 m/s 623 mmHg 84%
    09:00 +21°C° 0 mm 3 m/s 624 mmHg 76%
    10:00 +24°C° 0 mm 3 m/s 624 mmHg 67%
    11:00 +24°C° 0.4 mm 3 m/s 624 mmHg 68%
    12:00 +25°C° 0.4 mm 3 m/s 623 mmHg 68%
    13:00 +25°C° 0.4 mm 3 m/s 622 mmHg 69%
    14:00 +25°C° 0.7 mm 3 m/s 622 mmHg 71%
    15:00 +24°C° 0.7 mm 3 m/s 621 mmHg 73%
    16:00 +24°C° 0.7 mm 2 m/s 621 mmHg 74%
    17:00 +21°C° 1.2 mm 2 m/s 621 mmHg 80%
    18:00 +20°C° 1.2 mm 2 m/s 621 mmHg 86%
    19:00 +18°C° 1.2 mm 2 m/s 621 mmHg 92%
    20:00 +18°C° 0.5 mm 2 m/s 621 mmHg 93%
    21:00 +19°C° 0.5 mm 1 m/s 622 mmHg 94%
    22:00 +18°C° 0.5 mm 1 m/s 622 mmHg 94%
    23:00 +18°C° 1.7 mm 1 m/s 622 mmHg 95%
    Arată mai mult